Location: Elliott Corner
(37.4627°N, 119.7746°W)
Time: 23:20:33
(UTC+00:00)

Cosmos 2333 Rocket - Pass Details

Date: 10 September 2024
Orbit: 840 x 862 km, 70.8° (Epoch: 13 October)

Event Time Altitude Azimuth Distance (km) Brightness Sun altitude
Rises 12:18:36 0° 334° (NNW) 3,432 5.3 -16.1°
Reaches altitude 10° 12:21:05 10° 332° (NNW) 2,489 4.5 -15.6°
Maximum altitude 12:26:45 67° 251° (WSW) 918 2.1 -14.5°
Drops below altitude 10° 12:32:20 10° 170° (S) 2,459 4.6 -13.5°
Sets 12:34:47 0° 167° (SSE) 3,387 5.3 -13.0°
